Location: Albany
(35.0000°S, 118.0000°E)
Time: 11:36:17
(UTC-05:00)

Cosmos 1933 - Visible Passes

Search period start: 05 December 2016 00:00
Search period end: 15 December 2016 00:00
Orbit: 550 x 564 km, 82.5° (Epoch: 04 December)

Date Brightness Start Highest point End Pass type
(mag) Time Alt. Az. Time Alt. Az. Time Alt. Az.
05 Dec 3.6 14:08:36 36° NW 14:09:50 49° W 14:13:49 10° S visible
06 Dec 6.1 12:30:59 10° E 12:31:44 11° E 12:32:49 10° ESE visible
06 Dec 3.9 14:06:52 35° WNW 14:07:48 41° W 14:11:42 10° S visible
07 Dec 6.0 12:29:13 13° E 12:29:38 13° E 12:31:31 10° ESE visible
07 Dec 4.1 14:05:06 33° WNW 14:05:48 35° W 14:09:34 10° SSW visible
08 Dec 5.8 12:27:27 15° E 12:27:32 15° E 12:29:56 10° SE visible
08 Dec 4.3 14:03:19 29° W 14:03:47 30° WSW 14:07:24 10° SSW visible
09 Dec 5.6 12:25:38 18° E 12:25:38 18° E 12:28:13 10° SE visible
09 Dec 4.6 14:01:31 25° W 14:01:46 25° WSW 14:05:13 10° SSW visible
10 Dec 5.5 12:23:49 21° E 12:23:49 21° E 12:26:27 10° SE visible
10 Dec 4.8 13:59:41 22° WSW 13:59:46 22° WSW 14:02:59 10° SSW visible
11 Dec 5.3 12:21:58 23° ESE 12:21:58 23° ESE 12:24:36 10° SE visible
11 Dec 5.1 13:57:51 19° WSW 13:57:51 19° WSW 14:00:43 10° SSW visible
12 Dec 5.2 12:20:06 26° ESE 12:20:06 26° ESE 12:22:44 10° SSE visible
12 Dec 5.3 13:55:59 16° WSW 13:55:59 16° WSW 13:58:22 10° SW visible
13 Dec 5.1 12:18:13 28° ESE 12:18:13 28° ESE 12:20:49 10° SSE visible
13 Dec 5.5 13:54:06 14° WSW 13:54:06 14° WSW 13:55:56 10° SW visible
14 Dec 5.0 12:16:19 31° SE 12:16:19 31° SE 12:18:53 10° SSE visible
14 Dec 5.7 13:52:12 12° WSW 13:52:12 12° WSW 13:53:21 10° SW visible
